Terminal Aerodrome Forecast
Issued by NWS

Home | Current Version | Previous Version | Text Only | Print | Product List | Glossary On
Versions: 1 2 3 4 5 6 7 8 9 10 11 12 13 14
000
FTUS45 KRIW 071123
TAFJAC
TAF
KJAC 071123Z 0712/0812 VRB04KT P6SM VCFG FEW006 SCT100
     FM071600 VRB06KT P6SM SCT070 SCT120
     FM072000 VRB10G15KT P6SM VCTS SCT060CB BKN100
     FM080200 VRB06KT P6SM VCSH BKN060
     FM080600 35006KT P6SM SCT080
      AMD LTD TO CLD VIS AND WIND=

USA.gov is the U.S. government's official web portal to all federal, state and local government web resources and services.